Weather History for Trabzon, Turkey

Change the Weather History Date:

Monday, February 25, 2013

  Actual Average Record
Temperature  
Mean Temperature 46 °F -  
Max Temperature 49 °F 51 °F 75 °F (2006)
Min Temperature 44 °F 40 °F 30 °F (2007)
Degree Days  
Heating Degree Days 18    
Moisture  
Dew Point 46 °F    
Average Humidity 93    
Maximum Humidity 100    
Minimum Humidity 84    
Precipitation  
Precipitation 0.00 in - - ()
Sea Level Pressure  
Sea Level Pressure 30.33 in    
Wind  
Wind Speed 7 mph ()    
Max Wind Speed 12 mph    
Max Gust Speed -    
Visibility 4.8 miles    
Events Fog    
Averages and records for this station are not official NWS values.
T = Trace of Precipitation, MM = Missing Value Source: Averaged Metar Reports

Daily Weather History Graph

Daily Weather History Graph

Search for Another Location

Airport:

Trip Planner

Search our weather history database for the weather conditions in past years. The results will help you decide how hot, cold, wet, or windy it might be!

Date:

Astronomy

Feb. 25, 2013 Rise Set
Actual Time 6:01 AM EET 5:07 PM EET
Civil Twilight 5:33 AM EET 5:34 PM EET
Nautical Twilight 5:01 AM EET 6:06 PM EET
Astronomical Twilight 4:29 AM EET 6:38 PM EET
Moon 4:58 PM EET (2/25) 5:19 AM EET (2/25)
Length of Visible Light 12h 01m
Length of Day
11h 05m
Full, 100% of the Moon is Illuminated
Feb 25
Full
Feb 25
Full
Mar 4
Last Quarter
Mar 11
New
Mar 19
First Quarter

Hourly Weather History & Observations

Time (EET) Temp. Windchill Dew Point Humidity Pressure Visibility Wind Dir Wind Speed Gust Speed Precip Events Conditions
12:20 AM 48.2 °F - 48.2 °F 100% 30.36 in 6.2 mi East 5.8 mph - N/A   Mostly Cloudy
12:50 AM 48.2 °F - 48.2 °F 100% 30.36 in 5.0 mi East 5.8 mph - N/A   Mostly Cloudy
1:20 AM 48.2 °F - 46.4 °F 93% 30.36 in 6.2 mi East 5.8 mph - N/A   Mostly Cloudy
1:50 AM 48.2 °F - 46.4 °F 93% 30.36 in 6.2 mi ESE 4.6 mph - N/A   Mostly Cloudy
2:00 AM 48 °F - 46 °F 92% 30.38 in 6 mi ESE 4.6 mph - -   Mostly Cloudy
2:20 AM 48.2 °F - 46.4 °F 93% 30.36 in 6.2 mi SSE 4.6 mph - N/A   Mostly Cloudy
2:50 AM 48.2 °F - 46.4 °F 93% 30.36 in 6.2 mi East 5.8 mph - N/A   Mostly Cloudy
3:20 AM 48.2 °F - 46.4 °F 93% 30.36 in 6.2 mi ESE 6.9 mph - N/A   Mostly Cloudy
3:50 AM 48.2 °F - 46.4 °F 93% 30.36 in 6.2 mi ESE 6.9 mph - N/A   Mostly Cloudy
4:20 AM 48.2 °F - 44.6 °F 87% 30.36 in 6.2 mi ESE 6.9 mph - N/A   Mostly Cloudy
4:50 AM 48.2 °F - 44.6 °F 87% 30.36 in 3.7 mi SE 9.2 mph - N/A   Mostly Cloudy
5:20 AM 48.2 °F - 44.6 °F 87% 30.36 in 6.2 mi SE 9.2 mph - N/A   Mostly Cloudy
5:50 AM 48.2 °F - 44.6 °F 87% 30.36 in 6.2 mi SE 9.2 mph - N/A   Mostly Cloudy
6:20 AM 48.2 °F - 44.6 °F 87% 30.36 in 6.2 mi ESE 9.2 mph - N/A   Mostly Cloudy
6:50 AM 46.4 °F 41.9 °F 44.6 °F 93% 30.36 in 6.2 mi SE 9.2 mph - N/A   Mostly Cloudy
7:20 AM 48.2 °F - 44.6 °F 87% 30.36 in 6.2 mi ESE 8.1 mph - N/A   Mostly Cloudy
7:50 AM 48.2 °F - 44.6 °F 87% 30.36 in 6.2 mi East 10.4 mph - N/A   Mostly Cloudy
8:00 AM 47 °F - 45 °F 88% 30.38 in 12 mi East 10.4 mph - -   Mostly Cloudy
8:20 AM 48.2 °F - 44.6 °F 87% 30.36 in 6.2 mi East 10.4 mph - N/A   Mostly Cloudy
8:50 AM 48.2 °F - 44.6 °F 87% 30.36 in 6.2 mi East 9.2 mph - N/A   Mostly Cloudy
9:20 AM 48.2 °F - 44.6 °F 87% 30.36 in 6.2 mi ESE 9.2 mph - N/A   Mostly Cloudy
9:50 AM 48.2 °F - 44.6 °F 87% 30.36 in 6.2 mi East 8.1 mph - N/A   Mostly Cloudy
10:20 AM 48.2 °F - 44.6 °F 87% 30.36 in 6.2 mi East 9.2 mph - N/A   Mostly Cloudy
10:50 AM 48.2 °F - 46.4 °F 93% 30.36 in 6.2 mi East 10.4 mph - N/A   Mostly Cloudy
11:20 AM 48.2 °F - 46.4 °F 93% 30.36 in 6.2 mi East 9.2 mph - N/A   Mostly Cloudy
11:50 AM 50.0 °F - 46.4 °F 87% 30.33 in 6.2 mi East 9.2 mph - N/A   Mostly Cloudy
12:20 PM 50.0 °F - 46.4 °F 87% 30.33 in 6.2 mi East 9.2 mph - N/A   Mostly Cloudy
12:50 PM 50.0 °F - 46.4 °F 87% 30.33 in 6.2 mi East 10.4 mph - N/A   Mostly Cloudy
1:20 PM 48.2 °F - 46.4 °F 93% 30.30 in 6.2 mi East 10.4 mph - N/A   Mostly Cloudy
1:50 PM 48.2 °F - 46.4 °F 93% 30.30 in 6.2 mi East 9.2 mph - N/A   Mostly Cloudy
2:00 PM 49 °F - 46 °F 84% 30.33 in 9 mi East 9.2 mph - -   Mostly Cloudy
2:20 PM 48.2 °F - 46.4 °F 93% 30.30 in 6.2 mi East 11.5 mph - N/A   Mostly Cloudy
2:50 PM 48.2 °F - 46.4 °F 93% 30.30 in 6.2 mi East 11.5 mph - N/A   Mostly Cloudy
3:20 PM 48.2 °F - 46.4 °F 93% 30.30 in 6.2 mi East 11.5 mph - N/A   Mostly Cloudy
3:50 PM 48.2 °F - 46.4 °F 93% 30.30 in 6.2 mi East 9.2 mph - N/A   Mostly Cloudy
4:20 PM 48.2 °F - 46.4 °F 93% 30.30 in 6.2 mi East 8.1 mph - N/A   Mostly Cloudy
4:50 PM 48.2 °F - 46.4 °F 93% 30.30 in 5.6 mi East 9.2 mph - N/A   Mostly Cloudy
5:20 PM 48.2 °F - 46.4 °F 93% 30.30 in 3.7 mi East 6.9 mph - N/A   Mostly Cloudy
5:50 PM 46.4 °F 43.5 °F 46.4 °F 100% 30.30 in - ENE 5.8 mph - N/A   Mostly Cloudy
6:20 PM 46.4 °F 44.3 °F 46.4 °F 100% 30.30 in - East 4.6 mph - N/A   Overcast
6:50 PM 46.4 °F 44.3 °F 46.4 °F 100% 30.30 in 1.1 mi East 4.6 mph - N/A Fog Patches of Fog
7:20 PM 46.4 °F 42.9 °F 46.4 °F 100% 30.30 in 0.6 mi ESE 6.9 mph - N/A Fog Patches of Fog
7:50 PM 46.4 °F 43.5 °F 46.4 °F 100% 30.30 in 0.2 mi East 5.8 mph - N/A Fog Patches of Fog
8:00 PM 47 °F - 46 °F 94% 30.31 in 0 mi East 5.8 mph - - Fog Partial Fog
8:20 PM 46.4 °F 44.3 °F 44.6 °F 93% 30.30 in 0.1 mi ESE 4.6 mph - N/A Fog Fog
8:50 PM 46.4 °F 43.5 °F 44.6 °F 93% 30.30 in 0.1 mi ESE 5.8 mph - N/A Fog Fog
9:20 PM 44.6 °F 41.4 °F 44.6 °F 100% 30.30 in 0.2 mi ESE 5.8 mph - N/A Fog Fog
9:50 PM 44.6 °F 41.4 °F 44.6 °F 100% 30.30 in 0.2 mi ESE 5.8 mph - N/A Fog Patches of Fog
10:20 PM 44.6 °F 41.4 °F 44.6 °F 100% 30.27 in 0.2 mi ESE 5.8 mph - N/A Fog Fog
10:50 PM 44.6 °F 40.7 °F 44.6 °F 100% 30.27 in 0.3 mi ESE 6.9 mph - N/A Fog Patches of Fog
11:20 PM 44.6 °F 41.4 °F 44.6 °F 100% 30.27 in 0.3 mi ESE 5.8 mph - N/A Fog Fog
11:50 PM 44.6 °F 41.4 °F 44.6 °F 100% 30.27 in 0.3 mi ESE 5.8 mph - N/A Fog Patches of Fog